Weather History for De Queen, AR

Change the Weather History Date:

Thursday, March 22, 2012

  Actual Average Record
Temperature  
Mean Temperature 56 °F 55 °F  
Max Temperature 63 °F 68 °F 84 °F (1997)
Min Temperature 49 °F 42 °F 24 °F (1955)
Degree Days  
Heating Degree Days 9 11  
Month to date heating degree days 141 290  
Since 1 July heating degree days 2308 2781  
Cooling Degree Days 0 0  
Month to date cooling degree days 36 0  
Year to date cooling degree days 36 2  
Growing Degree Days 6 (Base 50)    
Moisture  
Dew Point 52 °F    
Average Humidity 86    
Maximum Humidity 100    
Minimum Humidity 72    
Precipitation  
Precipitation 0.49 in 0.19 in 0.93 in (1968)
Month to date precipitation 5.27 2.96  
Year to date precipitation 10.04 9.96  
Snow  
Snow 0.00 in - - ()
Month to date snowfall 0.0  
Since 1 July snowfall 2.3  
Snow Depth 0.00 in    
Sea Level Pressure  
Sea Level Pressure 29.87 in    
Wind  
Wind Speed 5 mph (NNE)    
Max Wind Speed 12 mph    
Max Gust Speed 18 mph    
Visibility 9 miles    
Events Rain , Thunderstorm    
T = Trace of Precipitation, MM = Missing Value Source: NWS Daily Summary

Daily Weather History Graph

Daily Weather History Graph

Search for Another Location

Airport:

Trip Planner

Search our weather history database for the weather conditions in past years. The results will help you decide how hot, cold, wet, or windy it might be!

Date:

Astronomy

Mar. 22, 2012 Rise Set
Actual Time 7:17 AM CDT 7:31 PM CDT
Civil Twilight 6:52 AM CDT 7:56 PM CDT
Nautical Twilight 6:23 AM CDT 8:25 PM CDT
Astronomical Twilight 5:54 AM CDT 8:55 PM CDT
Moon 6:59 AM CDT (3/22) 7:53 PM CDT (3/22)
Length of Visible Light 13h 03m
Length of Day
12h 13m
New Moon, 0% of the Moon is Illuminated
Mar 22
New Moon
Mar 30
First Quarter
Apr 6
Full
Apr 13
Last Quarter
Apr 21
New

Hourly Weather History & Observations

Time (CDT) Temp. Dew Point Humidity Pressure Visibility Wind Dir Wind Speed Gust Speed Precip Events Conditions
12:53 AM 52.0 °F 50.0 °F 93% 29.87 in 10.0 mi ENE 4.6 mph - N/A   Clear
1:53 AM 51.1 °F 50.0 °F 96% 29.86 in 10.0 mi ENE 6.9 mph - N/A   Clear
2:53 AM 51.1 °F 48.9 °F 92% 29.84 in 10.0 mi NE 4.6 mph - N/A   Clear
3:53 AM 48.9 °F 48.0 °F 97% 29.84 in 10.0 mi NNE 4.6 mph - N/A   Clear
4:07 AM 48.2 °F 48.2 °F 100% 29.85 in 10.0 mi North 4.6 mph - N/A   Partly Cloudy
4:53 AM 50.0 °F 48.9 °F 96% 29.84 in 10.0 mi NNE 4.6 mph - N/A   Overcast
5:53 AM 51.1 °F 50.0 °F 96% 29.88 in 10.0 mi Calm Calm - N/A   Overcast
6:53 AM 50.0 °F 50.0 °F 100% 29.89 in 10.0 mi Calm Calm - N/A   Partly Cloudy
7:53 AM 51.1 °F 50.0 °F 96% 29.90 in 10.0 mi East 5.8 mph - N/A   Scattered Clouds
8:53 AM 53.1 °F 50.0 °F 89% 29.91 in 10.0 mi East 5.8 mph - N/A   Scattered Clouds
9:53 AM 55.0 °F 50.0 °F 83% 29.91 in 10.0 mi ENE 6.9 mph - N/A   Scattered Clouds
10:53 AM 57.0 °F 48.9 °F 74% 29.92 in 10.0 mi ESE 4.6 mph - N/A   Overcast
11:53 AM 57.9 °F 50.0 °F 75% 29.91 in 10.0 mi ESE 5.8 mph - N/A   Overcast
12:53 PM 59.0 °F 52.0 °F 78% 29.94 in 9.0 mi Calm Calm - 0.00 in Rain Light Rain
1:53 PM 59.0 °F 53.1 °F 81% 29.89 in 10.0 mi NE 3.5 mph - 0.00 in   Overcast
2:53 PM 60.1 °F 52.0 °F 75% 29.87 in 10.0 mi Calm Calm - 0.00 in   Overcast
3:53 PM 60.1 °F 52.0 °F 75% 29.84 in 10.0 mi ENE 8.1 mph - N/A   Overcast
4:53 PM 61.0 °F 54.0 °F 78% 29.83 in 10.0 mi East 4.6 mph - N/A   Scattered Clouds
5:53 PM 63.0 °F 55.0 °F 75% 29.80 in 10.0 mi NE 4.6 mph - N/A   Mostly Cloudy
6:01 PM 62.6 °F 55.4 °F 77% 29.80 in 10.0 mi NE 4.6 mph - N/A Thunderstorm Overcast
6:18 PM 60.8 °F 55.4 °F 82% 29.80 in 10.0 mi WNW 4.6 mph - 0.00 in Rain Light Rain
6:33 PM 60.8 °F 55.4 °F 82% 29.83 in 10.0 mi West 6.9 mph - 0.00 in Rain , Thunderstorm Light Thunderstorms and Rain
6:53 PM 57.9 °F 55.0 °F 90% 29.84 in 4.0 mi West 5.8 mph - 0.07 in Rain , Thunderstorm Thunderstorms and Rain
7:19 PM 57.2 °F 55.4 °F 94% 29.85 in 2.5 mi West 10.4 mph - 0.12 in Rain , Thunderstorm Thunderstorms and Rain
7:28 PM 57.2 °F 55.4 °F 94% 29.84 in - NNW 6.9 mph - 0.15 in Thunderstorm Thunderstorm
7:53 PM 55.9 °F 55.0 °F 97% 29.87 in 4.0 mi West 9.2 mph - 0.22 in Rain , Thunderstorm Thunderstorms and Rain
8:00 PM 55.4 °F 55.4 °F 100% 29.87 in 1.8 mi WNW 9.2 mph - 0.10 in Rain , Thunderstorm Heavy Thunderstorms and Rain
8:08 PM 55.4 °F 53.6 °F 94% 29.88 in 3.0 mi Variable 5.8 mph - 0.12 in Rain , Thunderstorm Light Thunderstorms and Rain
8:50 PM 55.4 °F 53.6 °F 94% 29.89 in 5.0 mi WSW 3.5 mph - 0.15 in Rain Light Rain
8:53 PM 55.0 °F 54.0 °F 96% 29.89 in 6.0 mi WSW 3.5 mph - 0.15 in Rain Light Rain
9:53 PM 55.9 °F 53.1 °F 90% 29.85 in 10.0 mi SE 11.5 mph - 0.05 in Rain , Thunderstorm Light Rain
10:07 PM 55.4 °F 51.8 °F 88% 29.86 in 10.0 mi South 5.8 mph - 0.00 in   Mostly Cloudy
10:48 PM 53.6 °F 53.6 °F 100% 29.89 in 10.0 mi SW 4.6 mph - 0.00 in   Mostly Cloudy
10:53 PM 54.0 °F 53.1 °F 97% 29.89 in 10.0 mi WSW 4.6 mph - 0.00 in   Mostly Cloudy
11:14 PM 53.6 °F 51.8 °F 94% 29.91 in 10.0 mi SW 6.9 mph - N/A   Scattered Clouds
11:53 PM 53.1 °F 51.1 °F 93% 29.91 in 10.0 mi SW 8.1 mph - N/A   Scattered Clouds